星链-5219 (STARLINK-5219 )

导读

STARLINK-5219是美国SpaceX公司星链(Starlink)低轨卫星互联网星座中的一颗卫星,于2022年10月20日发射入轨,属于星链快速扩张阶段部署的组网卫星。星链项目计划构建全球覆盖的低轨卫星通信网络,该卫星运行在近地轨道,配备相控阵天线与推进系统,为偏远地区、海上及航空等场景提供低延迟高速宽带互联网接入服务,是星链全球覆盖网络的重要组成部分。

基本信息
目录编号:
54094
目录名称:
STARLINK-5219
国际标识:
2022-136AV
轨道中心:
EARTH
卫星名称:
星链-5219
卫星全名:
星链-5219 (STARLINK-5219 )
卫星状态:
已陨落 最后检测时间 2026-01-14
发射日期:
2022-10-20 UTC
国别 :
美国 (US)
星等 :
--
轨道信息
数据来源 国际轨道数据
星历时间: 2026-01-14T06:44:49+0800
轨道信息已过期152天
半长轴: 6527.656km
偏心率: 0.000178
轨道倾角: 53.220°
近地点辐角 285.574°
升交点赤经 197.346°
平近点角 74.511°
近地点: 148.357km
远地点: 150.681km
周期: 87.477分钟
每日圈数: 16.461405
详细信息
固有亮度:
5
最大亮度:
2.5
卫星平台:
Starlink v1.5
覆盖范围:
全球
运营商:
太空探索技术公司
运营商所在国:
美国
制造商(研发单位):
太空探索技术公司
制造商所在国:
美国
使用方式:
暂无
卫星简介
星链(Starlink)计划是由太空探索技术公司(SpaceX)提出的一个巨型低轨卫星互联网星座项目,计划在2019年至2024年间在太空搭建由约1.2万颗卫星组成的“星链”网络,其中1584颗将部署在地球上空550千米处的近地轨道,并从2020年开始工作。该卫星仍在工作。